Skip Navigation Links
NOAA logo - Click to go to the NOAA homepage
NOAA's National Weather Service
Alaska Aviation Weather Unit
  NWS logo - Click to go to the NWS homepage
Left Navbar Graphic     15 AKDT = 23 GMT

   
NOAA is celebrating 200 years of science, service, and stewardship. Visit the NOAA 200th celebration Web site to learn more.
USA.gov is the U.S. Government's official Web portal to all Federal, state and local government Web resources and services.
Facebook
NWS on Facebook

Important Change Regarding the AAWU Web Presence

 

Over the last several months, the AAWU has been working to navigate its webpages to a nationally supported server. Security, as well as other needs, have necessitated the change.  We have been given an extension for the site changeover while we diligently work at addressing feedback received. As of July 14, 2017, aawu.arh.noaa.gov will be discontinued. The new AAWU web address is weather.gov/aawu. It is now live and will run in-parallel with the old site until it is discontinued on July 14, 2017. Please continue to send any feedback or questions regarding the new webpages to nws.ar.aawu.webauthors@noaa.gov.  Thank you for your patience during this time of transition.
AAWU Home :: Display TAF Add Bookmark
TAF PAVD 192320Z 2000/2024  07018G28KT P6SM FEW080
     FM200600 07010G18KT P6SM SKC
     FM201400 10005KT P6SM SKC
      AMD LTD TO CLD VIS AND WIND=

7074
FTAK31 PANC 192320
TAFANC
TAF
METAR PAVD 191756Z 03011G21KT 350V060 10SM FEW070 03/M14 A2908=

METAR PAVD 191856Z 04011G20KT 10SM FEW070 03/M14 A2909=

METAR PAVD 191956Z 07021G35KT 10SM FEW075 03/M14 A2910=

METAR PAVD 192056Z 07016G29KT 030V100 10SM FEW075 03/M14 A2910=

METAR PAVD 192156Z 08020G27KT 10SM FEW075 03/M14 A2911=

METAR PAVD 192256Z 07019G32KT 10SM FEW075 03/M14 A2911=


NOAA's National Weather Service
Alaska Aviation Weather Unit
6930 Sand Lake Road
Anchorage, AK 99502-1845
Disclaimer
Credits
Glossary
Privacy Policy
About Us
Career Opportunities
Contact AAWU Internet Services Site last modified: April, 17th 2012